Bullhead City, AZ

12:32 AM MST on May 30, 2017 (GMT -0700)
Laughlin-Bullhead International

Weather History for KIFP - March, 2013

Change the Weather History Date:

Friday, March 8, 2013

  Actual Average Record
Temperature  
Mean Temperature 54 °F -  
Max Temperature 62 °F 73 °F 92 °F (1989)
Min Temperature 46 °F 51 °F 37 °F (2009)
Degree Days  
Heating Degree Days 11    
Growing Degree Days 4 (Base 50)    
Moisture  
Dew Point 40 °F    
Average Humidity 62    
Maximum Humidity 87    
Minimum Humidity 38    
Precipitation  
Precipitation 0.31 in - - ()
Sea Level Pressure  
Sea Level Pressure 29.80 in    
Wind  
Wind Speed 7 mph (South)    
Max Wind Speed 17 mph    
Max Gust Speed 31 mph    
Visibility 9 miles    
Events Rain , Thunderstorm    
Averages and records for this station are not official NWS values.
T = Trace of Precipitation, MM = Missing Value Source: NWS Daily Summary

Daily Weather History Graph

Daily Weather History Graph

Search for Another Location

Airport or City:

Trip Planner

Search our weather history database for the weather conditions in past years. The results will help you decide how hot, cold, wet, or windy it might be!

Date:

Astronomy

Mar. 08, 2013 Rise Set
Actual Time 6:58 AM MST 6:40 PM MST
Civil Twilight 6:32 AM MST 7:05 PM MST
Nautical Twilight 6:03 AM MST 7:34 PM MST
Astronomical Twilight 5:33 AM MST 8:04 PM MST
Moon 4:39 AM MST (3/8) 3:45 PM MST (3/8)
Length of Visible Light 12h 32m
Length of Day
11h 42m
Waning Crescent, 11% of the Moon is Illuminated
Mar 8
Waning Crescent
Mar 11
New
Mar 19
First Quarter
Mar 27
Full
Apr 2
Last Quarter

Hourly Weather History & Observations

Time (MST) Temp. Windchill Dew Point Humidity Pressure Visibility Wind Dir Wind Speed Gust Speed Precip Events Conditions
12:15 AM 62.6 °F - 37.4 °F 39% 29.81 in 10.0 mi WSW 3.5 mph - N/A   Clear
12:35 AM 59.0 °F - 37.4 °F 45% 29.81 in 10.0 mi Calm Calm - N/A   Clear
12:55 AM 59.0 °F - 37.4 °F 45% 29.81 in 10.0 mi South 3.5 mph - N/A   Clear
1:15 AM 59.0 °F - 37.4 °F 45% 29.80 in 10.0 mi Calm Calm - N/A   Clear
1:35 AM 60.8 °F - 35.6 °F 39% 29.80 in 10.0 mi SSE 10.4 mph - N/A   Clear
1:55 AM 59.0 °F - 35.6 °F 42% 29.79 in 10.0 mi SSE 10.4 mph - N/A   Clear
2:15 AM 59.0 °F - 35.6 °F 42% 29.79 in 10.0 mi SSE 10.4 mph - N/A   Partly Cloudy
2:35 AM 59.0 °F - 35.6 °F 42% 29.78 in 10.0 mi SSE 9.2 mph - N/A   Scattered Clouds
2:55 AM 59.0 °F - 35.6 °F 42% 29.78 in 10.0 mi SSE 11.5 mph - N/A   Scattered Clouds
3:15 AM 59.0 °F - 35.6 °F 42% 29.78 in 10.0 mi SE 11.5 mph - N/A   Mostly Cloudy
3:35 AM 59.0 °F - 35.6 °F 42% 29.76 in 10.0 mi SSE 9.2 mph - N/A   Mostly Cloudy
3:55 AM 57.2 °F - 39.2 °F 51% 29.76 in 10.0 mi ESE 5.8 mph - N/A   Partly Cloudy
4:15 AM 57.2 °F - 41.0 °F 55% 29.75 in 10.0 mi SE 6.9 mph - N/A   Mostly Cloudy
4:35 AM 57.2 °F - 39.2 °F 51% 29.75 in 10.0 mi ESE 6.9 mph - N/A   Overcast
4:55 AM 55.4 °F - 44.6 °F 67% 29.75 in 10.0 mi SE 5.8 mph - N/A   Mostly Cloudy
5:15 AM 55.4 °F - 44.6 °F 67% 29.76 in 9.0 mi South 4.6 mph - N/A   Mostly Cloudy
5:35 AM 55.4 °F - 44.6 °F 67% 29.77 in 10.0 mi SSW 6.9 mph - N/A   Overcast
5:55 AM 53.6 °F - 46.4 °F 77% 29.77 in 7.0 mi SSE 6.9 mph - 0.03 in   Mostly Cloudy
6:15 AM 53.6 °F - 46.4 °F 77% 29.78 in 10.0 mi Calm Calm - N/A   Mostly Cloudy
6:35 AM 53.6 °F - 44.6 °F 72% 29.78 in 10.0 mi SSW 9.2 mph - N/A   Mostly Cloudy
6:55 AM 51.8 °F - 46.4 °F 82% 29.77 in 10.0 mi ESE 6.9 mph - N/A   Overcast
7:15 AM 51.8 °F - 46.4 °F 82% 29.78 in 7.0 mi SE 3.5 mph - 0.01 in   Overcast
7:35 AM 51.8 °F - 46.4 °F 82% 29.77 in 10.0 mi Calm Calm - 0.02 in   Mostly Cloudy
7:55 AM 51.8 °F - 46.4 °F 82% 29.78 in 10.0 mi SSW 3.5 mph - 0.02 in   Mostly Cloudy
8:15 AM 51.8 °F - 46.4 °F 82% 29.78 in 9.0 mi Calm Calm - N/A   Overcast
8:35 AM 51.8 °F - 46.4 °F 82% 29.80 in 7.0 mi SSW 6.9 mph - 0.01 in Rain Light Rain
8:55 AM 50.0 °F - 46.4 °F 87% 29.81 in 5.0 mi South 9.2 mph - 0.03 in Rain Light Rain
9:15 AM 50.0 °F - 44.6 °F 82% 29.81 in 3.0 mi SSE 9.2 mph - 0.03 in Rain Light Rain
9:35 AM 50.0 °F - 46.4 °F 87% 29.81 in 3.0 mi SSE 4.6 mph - 0.06 in Rain Light Rain
9:55 AM 50.0 °F - 46.4 °F 87% 29.81 in 7.0 mi Calm Calm - 0.07 in Rain Light Rain
10:15 AM 50.0 °F - 46.4 °F 87% 29.80 in 5.0 mi SSW 3.5 mph - 0.01 in Rain Light Rain
10:35 AM 50.0 °F - 46.4 °F 87% 29.80 in 9.0 mi WSW 4.6 mph - 0.01 in Rain Light Rain
10:55 AM 50.0 °F - 46.4 °F 87% 29.80 in 10.0 mi WSW 3.5 mph - 0.01 in   Overcast
11:15 AM 51.8 °F - 46.4 °F 82% 29.80 in 9.0 mi Calm Calm - N/A Rain Light Rain
11:35 AM 55.4 °F - 48.2 °F 77% 29.79 in 10.0 mi South 4.6 mph - N/A   Mostly Cloudy
11:55 AM 53.6 °F - 46.4 °F 77% 29.79 in 10.0 mi Calm Calm - N/A   Mostly Cloudy
12:15 PM 46.4 °F 39.8 °F 41.0 °F 81% 29.81 in 1.2 mi WSW 16.1 mph 31.1 mph 0.11 in Rain , Thunderstorm Heavy Thunderstorms and Rain
12:35 PM 46.4 °F 41.1 °F 42.8 °F 87% 29.81 in 5.0 mi ESE 11.5 mph - 0.13 in Rain Light Rain
12:55 PM 48.2 °F - 42.8 °F 82% 29.83 in 5.0 mi ESE 17.3 mph - 0.15 in Rain Light Rain
1:15 PM 50.0 °F - 42.8 °F 76% 29.80 in 10.0 mi East 12.7 mph - N/A   Mostly Cloudy
1:35 PM 50.0 °F - 41.0 °F 71% 29.80 in 10.0 mi ESE 11.5 mph - N/A   Partly Cloudy
1:55 PM 50.0 °F - 42.8 °F 76% 29.80 in 10.0 mi ESE 9.2 mph - N/A   Partly Cloudy
2:15 PM 53.6 °F - 41.0 °F 62% 29.79 in 10.0 mi SSE 6.9 mph - N/A   Scattered Clouds
2:35 PM 53.6 °F - 41.0 °F 62% 29.78 in 10.0 mi SSE 4.6 mph - N/A   Partly Cloudy
2:55 PM 53.6 °F - 42.8 °F 67% 29.78 in 10.0 mi SW 5.8 mph - N/A   Clear
3:15 PM 55.4 °F - 44.6 °F 67% 29.77 in 10.0 mi SW 5.8 mph - N/A Thunderstorm Clear
3:35 PM 53.6 °F - 42.8 °F 67% 29.78 in 10.0 mi WSW 8.1 mph - N/A   Scattered Clouds
3:55 PM 55.4 °F - 42.8 °F 63% 29.79 in 10.0 mi SW 5.8 mph - N/A   Partly Cloudy
4:15 PM 55.4 °F - 37.4 °F 51% 29.79 in 10.0 mi South 8.1 mph - N/A   Clear
4:35 PM 55.4 °F - 39.2 °F 54% 29.78 in 10.0 mi SE 12.7 mph - N/A   Partly Cloudy
4:55 PM 57.2 °F - 37.4 °F 48% 29.77 in 10.0 mi SE 13.8 mph 17.3 mph N/A   Partly Cloudy
5:35 PM 57.2 °F - 35.6 °F 44% 29.78 in 10.0 mi SSE 12.7 mph - N/A   Clear
5:55 PM 57.2 °F - 35.6 °F 44% 29.78 in 10.0 mi South 11.5 mph - N/A   Clear
6:15 PM 57.2 °F - 32.0 °F 38% 29.79 in 10.0 mi SW 5.8 mph - N/A   Clear
6:35 PM 57.2 °F - 33.8 °F 41% 29.79 in 10.0 mi South 8.1 mph - N/A   Clear
6:55 PM 55.4 °F - 35.6 °F 47% 29.80 in 10.0 mi South 6.9 mph - N/A   Scattered Clouds
7:15 PM 55.4 °F - 35.6 °F 47% 29.81 in 10.0 mi SSE 8.1 mph - N/A   Mostly Cloudy
7:35 PM 55.4 °F - 37.4 °F 51% 29.82 in 10.0 mi SW 4.6 mph - N/A   Mostly Cloudy
7:55 PM 55.4 °F - 35.6 °F 47% 29.82 in 10.0 mi SW 3.5 mph - N/A   Scattered Clouds
8:15 PM 53.6 °F - 33.8 °F 47% 29.83 in 10.0 mi SW 4.6 mph - N/A   Scattered Clouds
8:35 PM 53.6 °F - 33.8 °F 47% 29.85 in 10.0 mi South 9.2 mph - N/A   Mostly Cloudy
8:55 PM 51.8 °F - 35.6 °F 54% 29.86 in 10.0 mi SSW 13.8 mph - N/A   Mostly Cloudy
9:15 PM 51.8 °F - 37.4 °F 58% 29.87 in 10.0 mi SSE 16.1 mph - N/A   Overcast
9:35 PM 51.8 °F - 37.4 °F 58% 29.88 in 10.0 mi SSE 15.0 mph - N/A   Mostly Cloudy
9:55 PM 50.0 °F - 37.4 °F 62% 29.88 in 10.0 mi SSE 13.8 mph - N/A   Scattered Clouds
10:15 PM 50.0 °F - 37.4 °F 62% 29.89 in 10.0 mi SSE 10.4 mph - N/A   Clear
10:35 PM 50.0 °F - 37.4 °F 62% 29.90 in 10.0 mi SSE 9.2 mph - N/A   Scattered Clouds
10:55 PM 51.8 °F - 35.6 °F 54% 29.90 in 10.0 mi SSE 12.7 mph - N/A   Scattered Clouds
11:15 PM 50.0 °F - 35.6 °F 58% 29.90 in 10.0 mi SSE 13.8 mph - N/A   Scattered Clouds
11:35 PM 50.0 °F - 35.6 °F 58% 29.90 in 10.0 mi SSE 15.0 mph - N/A   Mostly Cloudy
11:55 PM 50.0 °F - 35.6 °F 58% 29.91 in 10.0 mi South 9.2 mph - N/A   Overcast